Погода в Урунхайке

Казахстан     48°47′09″N   86°01′37″E
темп.,
°C
ветер,
м/с
пор.,
м/с
влажн.,
%
обл.,
%
осадки,
мм/ч
давл.,
гПа
погр.,
м
28 февраля, вс
вс2800:00−25всв2290100 0.0 104420
03:00−25всв228891 0.0 104420
06:00−25всв238591 0.0 104520
09:00−21всв2290100 0.0 1044100
12:00−17вюв1283100 0.1 1041493
15:00−15в1281100 0.1 1039486
18:00−19всв3396100 0.1 103826
21:00−19всв3495100 0.2 103874
1 марта, пн
пн100:00−18всв4495100 0.4 1036105
03:00−17всв3496100 0.5 1034118
06:00−17всв3495100 0.9 103292
09:00−15всв3494100 0.4 1030148
12:00−11в2289100 0.9 1027332
15:00−9ю1292100 0.6 1025263
18:00−11юв1196100 1.4 102624
21:00−12всв1296100 1.0 102636
2 марта, вт
вт200:00−12св1296100 2.1 102640
03:00−12ю0196100 0.8 102627
06:00−12в1196100 1.6 102721
09:00−11ю1193100 1.0 1026166
12:00−9юз2293100 1.7 1024286
15:00−8зюз2294100 0.9 1022233
18:00−9зюз1196100 2.1 102124
21:00−10ю1196100 0.8 102223
3 марта, ср
ср300:00−10юз1297100 2.1 102150
03:00−10юз1297100 1.7 102056
06:00−11ююз1296100 3.2 102141
09:00−10ююз3495100 0.6 1020297
12:00−8ююз4693100 1.1 1020518
15:00−9юз588793 0.2 1020809
18:00−15юз229361 0.2 102420
21:00−19в119418 0.0 102820
4 марта, чт
чт400:00−19всв127738 0.0 102920
03:00−19св227598 0.0 103020
06:00−19всв227598 0.0 103120
09:00−15всв227477 0.0 103144
12:00−10всв116042 0.0 1028285
15:00−8св11610 0.0 1026392
18:00−15всв23781 0.0 102820
21:00−16всв346197 0.0 102822